Regional Weather Roundup
Issued by NWS

Home | Current Version | Previous Version | Graphics & Text | Print | Product List | Glossary On
Versions: 1 2 3 4 5 6 7 8 9 10 11 12 13 14 15 16 17 18 19 20 21 22 23 24 25 26 27 28 29 30 31 32 33 34 35 36 37 38 39 40 41 42 43 44 45 46 47 48 49 50
000
ASUS45 KTFX 300919
RWRMT
MONTANA HOURLY WEATHER ROUNDUP
NATIONAL WEATHER SERVICE GREAT FALLS MT
319 AM MDT TUE SEP 30 2014

NOTE: "FAIR" INDICATES FEW OR NO CLOUDS BELOW 12000 FEET WITH NO
SIGNIFICANT WEATHER AND/OR OBSTRUCTIONS TO VISIBILITY.

* THESE STATIONS ARE NOT UNDER NWS QUALITY CONTROL. THEY DO NOT
   REPORT WEATHER SUCH AS PRECIPITATION OR FOG.

MTZ001>007-043-301000-
WEST OF THE DIVIDE
CITY           SKY/WX    TMP DP  RH WIND       PRES   REMARKS
KALISPELL      CLOUDY    55  48  77 SE10      29.76S
MISSOULA       LGT RAIN  50  50 100 CALM      29.84S
BUTTE          CLOUDY    46  45  96 NW3       29.89S
MULLAN PASS    LGT RAIN  43  43 100 VRB3      29.86S VSB 2 1/2
* ESSEX        N/A       53  45  74 SW1        N/A
* LINCOLN      N/A       48  46  93 S2G10      N/A
* LOOKOUT PASS N/A       49  45  86 E9         N/A
* POLSON       N/A       48  48 100 N/A        N/A
* RONAN APT    CLOUDY    52  48  86 N/A        N/A
* SEELEY LAKE  N/A       47  46  96 N/A        N/A
* THOMP F APT  CLOUDY    41  40  96 SE2        N/A
* YAAK HILL    N/A       52  46  80 NE2        N/A
$$

MTZ008-052>055-301000-
SOUTHWEST MONTANA
CITY           SKY/WX    TMP DP  RH WIND       PRES   REMARKS
BOZEMAN        LGT RAIN  50  46  86 S6        29.86R
DILLON         CLOUDY    50  39  66 SW9       29.89R
W YELLOWSTONE  CLOUDY    41  39  93 S8        29.94F
* THREE FORKS  CLOUDY    52  32  47 N/A        N/A
* BOULDER HILL N/A       47  36  66 W1         N/A
* RAYNOLDS PAS N/A       42  24  49 S11        N/A
* WHITEHALL    N/A       52  42  69 W3G9       N/A
* WISE RIVER   N/A       46  40  80 W10        N/A
$$

MTZ009>010-012-014-046-048-049-054-301000-
EAST SLOPES AND CENTRAL MONTANA
CITY           SKY/WX    TMP DP  RH WIND       PRES   REMARKS
CUT BANK       CLOUDY    57  43  60 W15       29.65S
GREAT FALLS    CLOUDY    55  43  64 SW15      29.69F
HELENA         CLOUDY    55  45  69 W13       29.80R
MALMSTROM AFB  CLOUDY    57  43  60 SW16      29.71S
* CONRAD       CLOUDY    55  52  90 SW6        N/A
* DEARBORN     N/A       58  43  58 SE1G8      N/A
* EAST GLACIER N/A       53  40  62 W20G31     N/A
* MONARCH      N/A       50  34  54 SW13G19    N/A
* PENDROY      N/A       54  40  59 W12G18     N/A
* ROGERS PASS  N/A       46  43  89 SE8G19     N/A
* SAINT MARY   N/A       53  43  69 S9G20      N/A
* SWEET GRASS  N/A       54  50  86 SW20G32    N/A
* WHITE SULPH  N/A       48  44  86 SW5G11     N/A
$$

MTZ011-013-016-021-035-040-045-047-050-051-301000-
NORTH CENTRAL MONTANA
CITY           SKY/WX    TMP DP  RH WIND       PRES   REMARKS
LEWISTOWN      MOCLDY    52  43  72 SW13      29.71F
* CHINOOK      PTCLDY    48  48 100 NE6       29.62F
* FORT BENTON  MOCLDY    57  46  67 SW7       29.67S
* CHESTER      N/A       52  48  86 S2         N/A
* DENTON       N/A       50  44  80 SW2        N/A
* GEYSER       N/A       53  40  62 SW16G22    N/A
* JUDITH GAP   N/A       41  40  96 S5         N/A
* LOMA         N/A       53  48  83 N/A        N/A
$$

MTZ017>020-022>027-061-062-301000-
NORTHEAST MONTANA
CITY           SKY/WX    TMP DP  RH WIND       PRES   REMARKS
GLASGOW        CLOUDY    50  48  93 SE12      29.71F
GLENDIVE       CLOUDY    52  52 100 E3        29.76F
JORDAN         CLOUDY    52  48  86 S3        29.71F
SIDNEY         CLOUDY    54  52  93 SE6       29.77F
WOLF POINT     CLOUDY    54  48  80 NE5       29.74F
* BEAVER HILL  N/A       52  51  96 SE9G14     N/A
* CIRCLE       N/A       52  50  93 S4         N/A
* LINDSAY DVD  N/A       50  50 100 SE11G17    N/A
* NAVAJO       N/A       49  48  96 S6         N/A
$$

MTZ028>042-056>058-301000-
SOUTHCENTRAL AND SOUTHEAST MONTANA
CITY           SKY/WX    TMP DP  RH WIND       PRES   REMARKS
BAKER          FOG       52  52 100 E10       29.75F
BILLINGS       FOG       46  45  96 SW10      29.73S
LIVINGSTON     CLOUDY    52  43  72 W17       29.80S
MILES CITY     CLOUDY    54  48  80 SE8       29.72F
* LAUREL APT   CLEAR     43  41  93 SW7        N/A
* ROUNDUP APT  CLEAR     46  43  89 SW6        N/A
* ALZADA       N/A       51  51 100 W2         N/A
* HYSHAM       N/A       51  48  90 W5         N/A
* LAME DEER    N/A       48  48 100 W11        N/A
* REED POINT   N/A       40  39  96 N/A        N/A
* ROSCOE HILL  N/A       52  25  35 SW5G13     N/A
$$

REGIONAL REPORTS...DAKOTAS
CITY           SKY/WX    TMP DP  RH WIND       PRES   REMARKS
WILLISTON      CLOUDY    54  50  86 SE12      29.78F
DICKINSON      LGT RAIN  52  50  93 SE13      29.76F
BEACH          N/A       50  50 100 SE12      29.77F
CROSBY         CLOUDY    50  50 100 SE9       29.80F
TIOGA          FOG       50  50 100 SE13      29.83F VSB 2 1/2
WATFORD CITY   CLOUDY    52  50  93 SE6       29.76F
BISMARCK       CLOUDY    54  50  86 E10       29.84F
GRAND FORKS    CLEAR     43  41  93 SE7       30.01F
FARGO          PTCLDY    46  43  89 SE8       30.01F
BUFFALO SD     CLOUDY    54  52  93 NE12      29.65F
RAPID CITY     CLOUDY    54  52  93 N15       29.62F
$$

REGIONAL REPORTS...WYOMING/IDAHO/WASHINGTON
CITY           SKY/WX    TMP DP  RH WIND       PRES   REMARKS
GILLETTE       LGT RAIN  52  50  93 CALM      29.73F
SHERIDAN       CLOUDY    52  48  86 W3        29.75F
CODY           PTCLDY    54  36  51 W14G21    29.79F
YELLOWSTONE LA MOCLDY    37  36  96 VRB3      30.00F
SALMON         CLOUDY    50  46  86 CALM      29.91S
MULLAN PASS    LGT RAIN  43  43 100 VRB3      29.86S VSB 2 1/2
SAND POINT     MOCLDY    50  50 100 S3        29.75S
SPOKANE        CLOUDY    55  52  90 SW18      29.78R
$$

REGIONAL REPORTS...ALBERTA
CITY           SKY/WX    TMP DP  RH WIND       PRES   REMARKS
CALGARY        MOCLDY    50  39  66 CALM      29.58R
LETHBRIDGE     CLOUDY    61  45  56 W24G32    29.57S
MEDICINE HAT   MOCLDY    55  46  72 S13G20    29.51F
EDMONTON       MOCLDY    46  45  96 NW8       29.58R
WATERTON GATE  N/A       55  41  59 SW20G30    N/A
CARDSTON       N/A       57  43  60 W9         N/A
MILK RIVER     N/A       55  46  72 S15G21     N/A
$$

REGIONAL REPORTS...SASKATCHEWAN
CITY           SKY/WX    TMP DP  RH WIND       PRES   REMARKS
SWIFT CURRENT  CLOUDY    50  48  93 S15       29.63F
MOOSE JAW      N/A       52  48  86 SE12G18   29.73F
REGINA         CLOUDY    48  46  93 SE15G21   29.77F
VAL MARIE      N/A       50  48  93 S14        N/A
ASSINIBOIA     N/A       48  46  93 SE9G18     N/A
CORONACH       N/A       48  48 100 S10        N/A

$$




USA.gov is the U.S. government's official web portal to all federal, state and local government web resources and services.